TimeCST,TemperatureF,Dew PointF,Humidity,Sea Level PressureIn,VisibilityMPH,Wind Direction,Wind SpeedMPH,Gust SpeedMPH,PrecipitationIn,Events,Conditions,WindDirDegrees,DateUTC
12:56 AM,60.1,50.0,69,30.23,10.0,ENE,8.1,-,N/A,,Clear,70,2013-11-05 06:56:00
1:56 AM,59.0,51.1,75,30.22,10.0,ENE,6.9,-,N/A,,Scattered Clouds,70,2013-11-05 07:56:00
2:56 AM,59.0,50.0,72,30.23,10.0,ENE,12.7,-,N/A,,Scattered Clouds,70,2013-11-05 08:56:00
3:56 AM,59.0,48.9,69,30.23,10.0,ENE,15.0,-,N/A,,Partly Cloudy,70,2013-11-05 09:56:00
4:56 AM,57.9,46.9,67,30.24,10.0,East,10.4,-,N/A,,Mostly Cloudy,80,2013-11-05 10:56:00
5:56 AM,57.9,46.9,67,30.26,7.0,ENE,12.7,-,N/A,,Mostly Cloudy,60,2013-11-05 11:56:00
6:56 AM,57.0,46.0,67,30.27,7.0,ENE,11.5,-,N/A,,Mostly Cloudy,70,2013-11-05 12:56:00
7:56 AM,57.9,46.0,65,30.28,10.0,ENE,11.5,-,N/A,,Mostly Cloudy,70,2013-11-05 13:56:00
8:56 AM,64.0,48.0,56,30.29,10.0,East,11.5,-,N/A,,Scattered Clouds,80,2013-11-05 14:56:00
9:56 AM,66.9,50.0,54,30.29,10.0,East,11.5,-,N/A,,Mostly Cloudy,80,2013-11-05 15:56:00
10:56 AM,66.9,52.0,59,30.27,10.0,ENE,9.2,-,N/A,,Overcast,70,2013-11-05 16:56:00
11:56 AM,70.0,53.1,55,30.23,10.0,ENE,8.1,-,N/A,,Overcast,60,2013-11-05 17:56:00
12:56 PM,73.0,55.0,53,30.21,10.0,ENE,9.2,-,N/A,,Overcast,70,2013-11-05 18:56:00
1:56 PM,75.0,55.9,51,30.19,10.0,ESE,9.2,-,N/A,,Mostly Cloudy,120,2013-11-05 19:56:00
2:56 PM,75.9,57.0,52,30.17,10.0,East,10.4,-,N/A,,Mostly Cloudy,80,2013-11-05 20:56:00
3:56 PM,72.0,57.0,59,30.17,10.0,ENE,5.8,-,N/A,,Mostly Cloudy,70,2013-11-05 21:56:00
4:56 PM,68.0,57.0,68,30.17,10.0,NE,3.5,-,N/A,,Scattered Clouds,50,2013-11-05 22:56:00
5:56 PM,68.0,57.9,70,30.18,10.0,NE,4.6,-,N/A,,Mostly Cloudy,50,2013-11-05 23:56:00
6:56 PM,68.0,57.0,68,30.18,10.0,ENE,8.1,-,N/A,,Scattered Clouds,70,2013-11-06 00:56:00
7:56 PM,68.0,55.0,63,30.19,10.0,East,10.4,-,N/A,,Mostly Cloudy,80,2013-11-06 01:56:00
8:56 PM,66.0,53.1,63,30.19,10.0,East,10.4,-,N/A,,Mostly Cloudy,80,2013-11-06 02:56:00
9:56 PM,64.9,53.1,65,30.19,10.0,East,10.4,-,N/A,,Scattered Clouds,90,2013-11-06 03:56:00
10:56 PM,63.0,52.0,67,30.19,10.0,East,9.2,-,N/A,,Partly Cloudy,90,2013-11-06 04:56:00
11:56 PM,61.0,51.1,70,30.17,10.0,East,6.9,-,N/A,,Clear,80,2013-11-06 05:56:00